• In United Kingdom
  • List of Countries
  • For 7 days
  • Water Temperature
  • Satellite Maps
  • Weather Map
  • Weather Widgets
  • user-avatar
    Login

    Hourly Weather Shaki

    Today, 26 June, Monday

    Time Temperature Precipitation Wind Pressure Humidity
    00:00 +20°C° 0.1 mm 2 mps 735 mmHg 59%
    01:00 +21°C° 0.2 mm 1 mps 735 mmHg 64%
    02:00 +20°C° 0.2 mm 1 mps 736 mmHg 69%
    03:00 +20°C° 0 mm 1 mps 736 mmHg 71%
    04:00 +21°C° 0.2 mm 1 mps 736 mmHg 68%
    05:00 +23°C° 0.2 mm 1 mps 737 mmHg 66%
    06:00 +24°C° 0.2 mm 1 mps 737 mmHg 63%
    07:00 +26°C° 0.1 mm 2 mps 737 mmHg 60%
    08:00 +27°C° 0.1 mm 3 mps 737 mmHg 57%
    09:00 +28°C° 0 mm 3 mps 737 mmHg 53%
    10:00 +29°C° 0 mm 3 mps 737 mmHg 50%
    11:00 +30°C° 0 mm 4 mps 737 mmHg 48%
    12:00 +30°C° 0 mm 4 mps 737 mmHg 45%
    13:00 +32°C° 0 mm 4 mps 737 mmHg 44%
    14:00 +32°C° 0 mm 4 mps 736 mmHg 43%
    15:00 +33°C° 0 mm 4 mps 736 mmHg 41%
    16:00 +32°C° 0 mm 4 mps 736 mmHg 44%
    17:00 +30°C° 0 mm 4 mps 736 mmHg 46%
    18:00 +30°C° 0 mm 4 mps 736 mmHg 49%
    19:00 +27°C° 0 mm 3 mps 737 mmHg 55%
    20:00 +25°C° 0 mm 3 mps 737 mmHg 61%
    21:00 +22°C° 0 mm 3 mps 737 mmHg 68%
    22:00 +21°C° 0 mm 3 mps 737 mmHg 71%
    23:00 +20°C° 0 mm 3 mps 737 mmHg 73%

    Tomorrow, 27 June, Tuesday

    Time Temperature Precipitation Wind Pressure Humidity
    00:00 +20°C° 0 mm 2 mps 737 mmHg 76%
    01:00 +19°C° 0 mm 2 mps 736 mmHg 77%
    02:00 +19°C° 0 mm 2 mps 736 mmHg 79%
    03:00 +20°C° 0 mm 1 mps 736 mmHg 80%
    04:00 +21°C° 0 mm 1 mps 736 mmHg 75%
    05:00 +23°C° 0 mm 1 mps 736 mmHg 69%
    06:00 +24°C° 0 mm 1 mps 736 mmHg 64%
    07:00 +26°C° 0 mm 1 mps 736 mmHg 57%
    08:00 +27°C° 0 mm 1 mps 736 mmHg 50%
    09:00 +29°C° 0 mm 1 mps 735 mmHg 43%
    10:00 +30°C° 0 mm 2 mps 735 mmHg 40%
    11:00 +32°C° 0 mm 2 mps 734 mmHg 37%
    12:00 +34°C° 0 mm 2 mps 734 mmHg 34%
    13:00 +34°C° 0 mm 2 mps 734 mmHg 32%
    14:00 +35°C° 0 mm 2 mps 733 mmHg 31%
    15:00 +35°C° 0 mm 2 mps 733 mmHg 30%
    16:00 +35°C° 0 mm 2 mps 733 mmHg 33%
    17:00 +34°C° 0 mm 2 mps 732 mmHg 36%
    18:00 +32°C° 0 mm 2 mps 732 mmHg 38%
    19:00 +30°C° 0 mm 2 mps 733 mmHg 44%
    20:00 +27°C° 0 mm 2 mps 733 mmHg 50%
    21:00 +25°C° 0 mm 2 mps 733 mmHg 55%
    22:00 +24°C° 0 mm 2 mps 733 mmHg 55%
    23:00 +24°C° 0 mm 2 mps 733 mmHg 55%

    Day after tomorrow, 28 June, Wednesday

    Time Temperature Precipitation Wind Pressure Humidity
    00:00 +23°C° 0 mm 2 mps 733 mmHg 55%
    01:00 +23°C° 0 mm 1 mps 733 mmHg 54%
    02:00 +23°C° 0 mm 1 mps 733 mmHg 54%
    03:00 +22°C° 0 mm 1 mps 732 mmHg 54%
    04:00 +24°C° 0 mm 1 mps 733 mmHg 52%
    05:00 +25°C° 0 mm 1 mps 733 mmHg 51%
    06:00 +26°C° 0 mm 1 mps 733 mmHg 49%
    07:00 +28°C° 0 mm 1 mps 733 mmHg 44%
    08:00 +30°C° 0 mm 1 mps 733 mmHg 39%
    09:00 +32°C° 0 mm 2 mps 733 mmHg 34%
    10:00 +35°C° 0 mm 2 mps 732 mmHg 31%
    11:00 +36°C° 0 mm 2 mps 732 mmHg 29%
    12:00 +37°C° 0 mm 2 mps 732 mmHg 26%
    13:00 +37°C° 0 mm 2 mps 732 mmHg 26%
    14:00 +38°C° 0 mm 2 mps 731 mmHg 25%
    15:00 +38°C° 0 mm 2 mps 731 mmHg 25%
    16:00 +37°C° 0 mm 2 mps 731 mmHg 27%
    17:00 +36°C° 0 mm 2 mps 731 mmHg 30%
    18:00 +35°C° 0 mm 2 mps 731 mmHg 33%
    19:00 +32°C° 0 mm 2 mps 731 mmHg 39%
    20:00 +29°C° 0 mm 2 mps 732 mmHg 44%
    21:00 +26°C° 0 mm 2 mps 732 mmHg 50%
    22:00 +25°C° 0 mm 2 mps 732 mmHg 51%
    23:00 +25°C° 0 mm 2 mps 732 mmHg 52%

    29 June, Thursday

    Time Temperature Precipitation Wind Pressure Humidity
    00:00 +24°C° 0 mm 1 mps 732 mmHg 54%
    01:00 +23°C° 0 mm 1 mps 732 mmHg 54%
    02:00 +23°C° 0 mm 1 mps 732 mmHg 55%
    03:00 +22°C° 0 mm 1 mps 731 mmHg 56%
    04:00 +24°C° 0 mm 1 mps 732 mmHg 52%
    05:00 +24°C° 0 mm 0 mps 732 mmHg 49%
    06:00 +26°C° 0 mm 0 mps 732 mmHg 46%
    07:00 +30°C° 0 mm 1 mps 733 mmHg 39%
    08:00 +32°C° 0 mm 1 mps 733 mmHg 32%
    09:00 +33°C° 0 mm 1 mps 733 mmHg 25%
    10:00 +35°C° 0 mm 2 mps 733 mmHg 24%
    11:00 +36°C° 0 mm 2 mps 732 mmHg 23%
    12:00 +37°C° 0 mm 3 mps 732 mmHg 22%
    13:00 +37°C° 0 mm 3 mps 732 mmHg 22%
    14:00 +38°C° 0 mm 3 mps 731 mmHg 22%
    15:00 +38°C° 0 mm 3 mps 731 mmHg 22%
    16:00 +37°C° 0 mm 3 mps 731 mmHg 24%
    17:00 +36°C° 0 mm 2 mps 731 mmHg 26%
    18:00 +36°C° 0 mm 2 mps 731 mmHg 28%
    19:00 +32°C° 0 mm 2 mps 732 mmHg 33%
    20:00 +29°C° 0 mm 2 mps 732 mmHg 38%
    21:00 +26°C° 0 mm 2 mps 732 mmHg 44%
    22:00 +26°C° 0 mm 2 mps 732 mmHg 46%
    23:00 +25°C° 0 mm 2 mps 732 mmHg 47%

    30 June, Friday

    Time Temperature Precipitation Wind Pressure Humidity
    00:00 +24°C° 0 mm 1 mps 732 mmHg 49%
    01:00 +24°C° 0 mm 1 mps 732 mmHg 51%
    02:00 +23°C° 0 mm 1 mps 732 mmHg 52%
    03:00 +23°C° 0 mm 1 mps 732 mmHg 54%
    04:00 +24°C° 0 mm 1 mps 732 mmHg 51%
    05:00 +26°C° 0 mm 1 mps 732 mmHg 49%
    06:00 +28°C° 0 mm 1 mps 733 mmHg 47%
    07:00 +29°C° 0.1 mm 1 mps 733 mmHg 41%
    08:00 +31°C° 0.1 mm 1 mps 733 mmHg 34%
    09:00 +33°C° 0.1 mm 1 mps 733 mmHg 28%
    10:00 +34°C° 0.2 mm 1 mps 733 mmHg 26%
    11:00 +35°C° 0.2 mm 1 mps 733 mmHg 24%
    12:00 +36°C° 0.2 mm 1 mps 733 mmHg 22%
    13:00 +36°C° 0.2 mm 1 mps 733 mmHg 22%
    14:00 +37°C° 0.2 mm 2 mps 733 mmHg 21%
    15:00 +37°C° 0.2 mm 2 mps 732 mmHg 21%
    16:00 +37°C° 0.1 mm 2 mps 732 mmHg 22%
    17:00 +36°C° 0.1 mm 2 mps 733 mmHg 24%
    18:00 +36°C° 0.1 mm 2 mps 733 mmHg 25%
    19:00 +32°C° 0 mm 2 mps 733 mmHg 29%
    20:00 +29°C° 0 mm 2 mps 733 mmHg 34%
    21:00 +27°C° 0 mm 2 mps 733 mmHg 38%
    22:00 +26°C° 0 mm 2 mps 734 mmHg 39%
    23:00 +26°C° 0 mm 2 mps 734 mmHg 40%

    1 July, Saturday

    Time Temperature Precipitation Wind Pressure Humidity
    00:00 +26°C° 0 mm 2 mps 734 mmHg 40%
    01:00 +25°C° 0 mm 2 mps 734 mmHg 42%
    02:00 +25°C° 0 mm 2 mps 734 mmHg 44%
    03:00 +25°C° 0 mm 2 mps 734 mmHg 45%
    04:00 +25°C° 0 mm 2 mps 734 mmHg 45%
    05:00 +26°C° 0 mm 1 mps 735 mmHg 44%
    06:00 +27°C° 0 mm 1 mps 735 mmHg 44%
    07:00 +29°C° 0 mm 1 mps 735 mmHg 38%
    08:00 +31°C° 0 mm 1 mps 736 mmHg 33%
    09:00 +33°C° 0 mm 1 mps 736 mmHg 27%
    10:00 +34°C° 0 mm 1 mps 735 mmHg 25%
    11:00 +35°C° 0 mm 1 mps 735 mmHg 23%
    12:00 +37°C° 0 mm 2 mps 735 mmHg 20%
    13:00 +38°C° 0 mm 2 mps 735 mmHg 20%
    14:00 +38°C° 0 mm 3 mps 735 mmHg 19%
    15:00 +40°C° 0 mm 4 mps 734 mmHg 18%
    16:00 +38°C° 0 mm 4 mps 734 mmHg 20%
    17:00 +37°C° 0 mm 4 mps 734 mmHg 22%
    18:00 +36°C° 0 mm 3 mps 734 mmHg 25%
    19:00 +34°C° 0 mm 3 mps 735 mmHg 30%
    20:00 +30°C° 0 mm 3 mps 735 mmHg 35%
    21:00 +27°C° 0 mm 3 mps 735 mmHg 40%
    22:00 +26°C° 0 mm 2 mps 735 mmHg 41%
    23:00 +25°C° 0 mm 2 mps 735 mmHg 42%
    Show more